EN

Hourly Weather Labinsk

Today, 4 August, Wednesday

Time Temperature Precipitation Wind Pressure Humidity
00:00 +26°C° 0 mm 3 mps 737 mmHg 55%
01:00 +25°C° 0 mm 3 mps 737 mmHg 58%
02:00 +24°C° 0 mm 2 mps 737 mmHg 61%
03:00 +23°C° 0 mm 2 mps 737 mmHg 65%
04:00 +23°C° 0 mm 2 mps 737 mmHg 65%
05:00 +23°C° 0 mm 2 mps 737 mmHg 66%
06:00 +24°C° 0 mm 2 mps 737 mmHg 66%
07:00 +26°C° 0 mm 2 mps 737 mmHg 60%
08:00 +28°C° 0 mm 2 mps 737 mmHg 54%
09:00 +30°C° 0 mm 2 mps 738 mmHg 48%
10:00 +32°C° 0 mm 2 mps 738 mmHg 44%
11:00 +34°C° 0 mm 2 mps 737 mmHg 39%
12:00 +36°C° 0 mm 2 mps 737 mmHg 35%
13:00 +36°C° 0 mm 2 mps 737 mmHg 34%
14:00 +37°C° 0 mm 3 mps 737 mmHg 32%
15:00 +37°C° 0 mm 3 mps 736 mmHg 30%
16:00 +36°C° 0 mm 3 mps 736 mmHg 36%
17:00 +34°C° 0 mm 3 mps 736 mmHg 41%
18:00 +33°C° 0 mm 3 mps 736 mmHg 47%
19:00 +30°C° 0.1 mm 3 mps 737 mmHg 53%
20:00 +28°C° 0.1 mm 3 mps 737 mmHg 59%
21:00 +26°C° 0.1 mm 3 mps 737 mmHg 65%
22:00 +25°C° 0.1 mm 2 mps 737 mmHg 69%
23:00 +24°C° 0.1 mm 2 mps 737 mmHg 74%

Tomorrow, 5 August, Thursday

Time Temperature Precipitation Wind Pressure Humidity
00:00 +23°C° 0.1 mm 1 mps 737 mmHg 78%
01:00 +23°C° 0.2 mm 1 mps 737 mmHg 80%
02:00 +22°C° 0.2 mm 1 mps 737 mmHg 81%
03:00 +22°C° 0.2 mm 1 mps 737 mmHg 83%
04:00 +22°C° 0 mm 1 mps 737 mmHg 82%
05:00 +22°C° 0 mm 1 mps 737 mmHg 81%
06:00 +22°C° 0 mm 1 mps 737 mmHg 80%
07:00 +25°C° 0 mm 1 mps 737 mmHg 71%
08:00 +27°C° 0 mm 2 mps 737 mmHg 62%
09:00 +29°C° 0 mm 2 mps 737 mmHg 53%
10:00 +31°C° 0 mm 3 mps 737 mmHg 47%
11:00 +34°C° 0 mm 3 mps 737 mmHg 42%
12:00 +36°C° 0 mm 3 mps 736 mmHg 36%
13:00 +36°C° 0 mm 3 mps 736 mmHg 34%
14:00 +37°C° 0 mm 3 mps 735 mmHg 32%
15:00 +38°C° 0 mm 4 mps 735 mmHg 30%
16:00 +36°C° 0 mm 3 mps 735 mmHg 35%
17:00 +35°C° 0 mm 3 mps 735 mmHg 40%
18:00 +34°C° 0 mm 2 mps 735 mmHg 44%
19:00 +31°C° 0.1 mm 2 mps 734 mmHg 49%
20:00 +29°C° 0.1 mm 2 mps 734 mmHg 54%
21:00 +28°C° 0.1 mm 2 mps 734 mmHg 59%
22:00 +27°C° 0 mm 2 mps 734 mmHg 61%
23:00 +26°C° 0 mm 2 mps 734 mmHg 63%

Day after tomorrow, 6 August, Friday

Time Temperature Precipitation Wind Pressure Humidity
00:00 +25°C° 0 mm 2 mps 734 mmHg 66%
01:00 +25°C° 0 mm 2 mps 734 mmHg 67%
02:00 +24°C° 0 mm 3 mps 733 mmHg 68%
03:00 +24°C° 0 mm 3 mps 733 mmHg 69%
04:00 +24°C° 0 mm 3 mps 733 mmHg 69%
05:00 +24°C° 0 mm 3 mps 733 mmHg 69%
06:00 +23°C° 0 mm 2 mps 733 mmHg 69%
07:00 +26°C° 0 mm 2 mps 733 mmHg 61%
08:00 +29°C° 0 mm 2 mps 733 mmHg 53%
09:00 +31°C° 0 mm 2 mps 733 mmHg 44%
10:00 +34°C° 0 mm 3 mps 733 mmHg 40%
11:00 +36°C° 0 mm 3 mps 732 mmHg 35%
12:00 +38°C° 0 mm 4 mps 732 mmHg 31%
13:00 +40°C° 0 mm 4 mps 731 mmHg 29%
14:00 +41°C° 0 mm 5 mps 731 mmHg 26%
15:00 +42°C° 0 mm 5 mps 730 mmHg 24%
16:00 +41°C° 0 mm 5 mps 730 mmHg 26%
17:00 +40°C° 0 mm 6 mps 730 mmHg 28%
18:00 +39°C° 0 mm 6 mps 730 mmHg 29%
19:00 +35°C° 0 mm 5 mps 730 mmHg 36%
20:00 +33°C° 0 mm 4 mps 730 mmHg 42%
21:00 +29°C° 0 mm 3 mps 730 mmHg 48%
22:00 +29°C° 0 mm 4 mps 730 mmHg 49%
23:00 +29°C° 0 mm 4 mps 729 mmHg 49%

7 August, Saturday

Time Temperature Precipitation Wind Pressure Humidity
00:00 +28°C° 0 mm 4 mps 729 mmHg 49%
01:00 +28°C° 0 mm 4 mps 729 mmHg 50%
02:00 +27°C° 0 mm 3 mps 729 mmHg 51%
03:00 +27°C° 0 mm 3 mps 729 mmHg 52%
04:00 +27°C° 0 mm 3 mps 729 mmHg 53%
05:00 +27°C° 0 mm 2 mps 730 mmHg 54%
06:00 +27°C° 0 mm 2 mps 730 mmHg 55%
07:00 +28°C° 0 mm 2 mps 730 mmHg 52%
08:00 +30°C° 0 mm 2 mps 730 mmHg 49%
09:00 +31°C° 0 mm 2 mps 731 mmHg 46%
10:00 +34°C° 0 mm 2 mps 731 mmHg 42%
11:00 +35°C° 0 mm 2 mps 731 mmHg 38%
12:00 +37°C° 0 mm 3 mps 731 mmHg 34%
13:00 +36°C° 0.1 mm 3 mps 731 mmHg 35%
14:00 +36°C° 0.1 mm 4 mps 731 mmHg 35%
15:00 +36°C° 0.1 mm 4 mps 731 mmHg 36%
16:00 +35°C° 0.4 mm 4 mps 731 mmHg 43%
17:00 +33°C° 0.4 mm 3 mps 731 mmHg 50%
18:00 +30°C° 0.4 mm 2 mps 731 mmHg 57%
19:00 +29°C° 0.1 mm 3 mps 732 mmHg 61%
20:00 +27°C° 0.1 mm 5 mps 732 mmHg 65%
21:00 +26°C° 0.1 mm 6 mps 733 mmHg 69%
22:00 +25°C° 0.2 mm 5 mps 733 mmHg 71%
23:00 +25°C° 0.2 mm 4 mps 733 mmHg 73%

8 August, Sunday

Time Temperature Precipitation Wind Pressure Humidity
00:00 +24°C° 0.2 mm 3 mps 732 mmHg 75%
01:00 +22°C° 0.2 mm 3 mps 733 mmHg 76%
02:00 +22°C° 0.2 mm 3 mps 733 mmHg 78%
03:00 +22°C° 0.2 mm 3 mps 734 mmHg 79%
04:00 +23°C° 0 mm 2 mps 734 mmHg 78%
05:00 +24°C° 0 mm 2 mps 734 mmHg 77%
06:00 +24°C° 0 mm 2 mps 734 mmHg 76%
07:00 +26°C° 0 mm 2 mps 734 mmHg 67%
08:00 +29°C° 0 mm 1 mps 735 mmHg 58%
09:00 +31°C° 0 mm 1 mps 735 mmHg 50%
10:00 +32°C° 0 mm 1 mps 735 mmHg 44%
11:00 +34°C° 0 mm 1 mps 735 mmHg 39%
12:00 +37°C° 0 mm 2 mps 735 mmHg 33%
13:00 +35°C° 0.2 mm 3 mps 735 mmHg 39%
14:00 +33°C° 0.2 mm 4 mps 735 mmHg 46%
15:00 +30°C° 0.2 mm 5 mps 735 mmHg 52%
16:00 +29°C° 0.2 mm 4 mps 735 mmHg 53%
17:00 +29°C° 0.2 mm 4 mps 735 mmHg 55%
18:00 +29°C° 0.2 mm 3 mps 735 mmHg 56%
19:00 +26°C° 0.2 mm 2 mps 736 mmHg 68%
20:00 +24°C° 0.2 mm 1 mps 737 mmHg 81%
21:00 +21°C° 0.2 mm 1 mps 738 mmHg 93%
22:00 +21°C° 0 mm 1 mps 737 mmHg 91%
23:00 +20°C° 0 mm 2 mps 737 mmHg 89%

9 August, Monday

Time Temperature Precipitation Wind Pressure Humidity
00:00 +20°C° 0 mm 3 mps 737 mmHg 87%
01:00 +21°C° 0 mm 3 mps 737 mmHg 84%
02:00 +21°C° 0 mm 2 mps 737 mmHg 82%
03:00 +21°C° 0 mm 2 mps 737 mmHg 79%
04:00 +21°C° 0.1 mm 2 mps 737 mmHg 78%
05:00 +22°C° 0.1 mm 1 mps 737 mmHg 78%
06:00 +22°C° 0.1 mm 1 mps 737 mmHg 78%
07:00 +25°C° 0 mm 1 mps 737 mmHg 69%
08:00 +27°C° 0 mm 2 mps 737 mmHg 60%
09:00 +29°C° 0 mm 2 mps 737 mmHg 51%
10:00 +31°C° 0 mm 2 mps 737 mmHg 46%
11:00 +32°C° 0 mm 2 mps 737 mmHg 41%
12:00 +35°C° 0 mm 3 mps 737 mmHg 36%
13:00 +36°C° 0 mm 3 mps 737 mmHg 34%
14:00 +36°C° 0 mm 3 mps 737 mmHg 33%
15:00 +37°C° 0 mm 3 mps 737 mmHg 31%
16:00 +36°C° 0 mm 3 mps 737 mmHg 34%
17:00 +35°C° 0 mm 2 mps 736 mmHg 36%
18:00 +35°C° 0 mm 2 mps 736 mmHg 39%
19:00 +31°C° 0.1 mm 2 mps 737 mmHg 46%
20:00 +29°C° 0.1 mm 1 mps 737 mmHg 53%
21:00 +27°C° 0.1 mm 1 mps 737 mmHg 60%
22:00 +26°C° 0.2 mm 2 mps 737 mmHg 64%
23:00 +25°C° 0.2 mm 2 mps 737 mmHg 69%
Show more